Location: Haut Kerinec
(48.0623°N, 4.4081°W)
Time: 12:05:07
(UTC+00:00)

STARLINK-1229 - Pass Details

Date: 01 June 2020
Orbit: 549 x 551 km, 53.0° (Epoch: 02 July)

Event Time Altitude Azimuth Distance (km) Brightness Sun altitude
Rises 23:23:25 0° 296° (WNW) 2,727 7.7 -18.7°
Reaches altitude 10° 23:25:42 10° 291° (WNW) 1,831 6.7 -18.8°
Maximum altitude 23:29:42 49° 216° (SW) 715 3.9 -19.0°
Enters shadow 23:30:08 47° 194° (SSW) 737 3.8 -19.0°
